Location: Marcé
(47.5801°N, 0.3280°W)
Time: 15:09:50
(UTC+01:00)

Vanguard 1 - Pass Details

Date: 03 December 2021
Orbit: 652 x 3830 km, 34.2° (Epoch: 19 January)

Event Time Altitude Azimuth Distance (km) Brightness Sun altitude
Rises 23:06:53 0° 205° (SSW) 6,879 14.3 -57.1°
Enters shadow 23:09:10 - 201° (SSW) 6,566 14.1 -57.4°
Reaches altitude 10° 23:11:53 10° 196° (SSW) 6,227 - -57.8°
Maximum altitude 23:29:13 33° 142° (SE) 5,214 - -59.8°
Drops below altitude 10° 23:47:25 10° 89° (E) 6,597 - -61.6°
Exits shadow 23:50:47 - 84° (E) 7,042 14.3 -61.9°
Sets 23:52:49 0° 81° (E) 7,330 14.4 -62.1°
